Location: Antioch
(38.0049°N, 121.8058°W)
Time: 05:56:57
(UTC+00:00)

Cosmos 1777 Rocket - Pass Details

Date: 11 February 2026
Orbit: 754 x 771 km, 74.0° (Epoch: 5 March)

Event Time Altitude Azimuth Distance (km) Brightness Sun altitude
Rises 13:45:05 0° 211° (SSW) 3,191 7.0 -15.6°
Reaches altitude 10° 13:47:30 10° 217° (SW) 2,270 6.1 -15.1°
Maximum altitude 13:52:29 49° 292° (WNW) 971 4.1 -14.1°
Drops below altitude 10° 13:57:30 10° 7° (N) 2,286 6.5 -13.2°
Sets 13:59:57 0° 13° (NNE) 3,217 7.3 -12.7°
